contact:dominique.lefevre@mio.osupytheas.fr, maurice.libes@osupytheas.fr, didier.mallarino@osupytheas.fr
Project:EMSO http://www.emso-fr.org/EMSO-France
Depth: 2436.0 m
Title:EMSO Ligure Ouest : Data MII capteur MICROCAT
DateTime_Computer,Latitude,Longitude,Temperature,Conductivity,Pressure,DateTime_Instrument
DateTime_Computer,Latitude,Longitude,degC,S m-1,dbar,DateTime_Instrument
2023-12-26T00:01:30Z,42.805,6.029,13.3048,4.60168,2470.717,2023-12-26T02:04:01Z
2023-12-26T00:04:33Z,42.805,6.029,13.3045,4.60155,2470.717,2023-12-26T02:07:04Z
2023-12-26T00:07:36Z,42.805,6.029,13.3051,4.60173,2470.74,2023-12-26T02:10:07Z
2023-12-26T00:10:40Z,42.805,6.029,13.3056,4.60175,2470.73,2023-12-26T02:13:10Z
2023-12-26T00:13:43Z,42.805,6.029,13.3065,4.60167,2470.73,2023-12-26T02:16:13Z
2023-12-26T00:16:46Z,42.805,6.029,13.3057,4.60200,2470.717,2023-12-26T02:19:16Z
2023-12-26T00:19:49Z,42.805,6.029,13.3055,4.60185,2470.73,2023-12-26T02:22:19Z
2023-12-26T00:22:52Z,42.805,6.029,13.3053,4.60183,2470.754,2023-12-26T02:25:23Z
2023-12-26T00:25:55Z,42.805,6.029,13.3047,4.60173,2470.693,2023-12-26T02:28:26Z
2023-12-26T00:28:58Z,42.805,6.029,13.3058,4.60175,2470.693,2023-12-26T02:31:29Z
2023-12-26T00:32:01Z,42.805,6.029,13.3045,4.60170,2470.717,2023-12-26T02:34:32Z
2023-12-26T00:35:04Z,42.805,6.029,13.3055,4.60190,2470.73,2023-12-26T02:37:35Z
2023-12-26T00:38:07Z,42.805,6.029,13.3053,4.60190,2470.73,2023-12-26T02:40:38Z
2023-12-26T00:41:10Z,42.805,6.029,13.3054,4.60175,2470.717,2023-12-26T02:43:41Z
2023-12-26T00:44:13Z,42.805,6.029,13.3047,4.60163,2470.707,2023-12-26T02:46:44Z
2023-12-26T00:47:16Z,42.805,6.029,13.3054,4.60181,2470.693,2023-12-26T02:49:47Z
2023-12-26T00:50:20Z,42.805,6.029,13.3050,4.60178,2470.717,2023-12-26T02:52:50Z
2023-12-26T00:53:23Z,42.805,6.029,13.3043,4.60175,2470.717,2023-12-26T02:55:53Z
2023-12-26T00:56:26Z,42.805,6.029,13.3045,4.60173,2470.73,2023-12-26T02:58:56Z
2023-12-26T00:59:29Z,42.805,6.029,13.3046,4.60185,2470.707,2023-12-26T03:02:00Z
2023-12-26T01:02:32Z,42.805,6.029,13.3057,4.60168,2470.703,2023-12-26T03:05:03Z
2023-12-26T01:05:35Z,42.805,6.029,13.3052,4.60181,2470.717,2023-12-26T03:08:06Z
2023-12-26T01:08:38Z,42.805,6.029,13.3055,4.60178,2470.717,2023-12-26T03:11:09Z
2023-12-26T01:11:41Z,42.805,6.029,13.3057,4.60181,2470.73,2023-12-26T03:14:12Z
2023-12-26T01:14:44Z,42.805,6.029,13.3046,4.60176,2470.693,2023-12-26T03:17:15Z
2023-12-26T01:17:47Z,42.805,6.029,13.3055,4.60172,2470.717,2023-12-26T03:20:18Z
2023-12-26T01:20:50Z,42.805,6.029,13.3054,4.60172,2470.693,2023-12-26T03:23:21Z
2023-12-26T01:23:53Z,42.805,6.029,13.3059,4.60178,2470.74,2023-12-26T03:26:24Z
2023-12-26T01:26:57Z,42.805,6.029,13.3048,4.60157,2470.693,2023-12-26T03:29:27Z
2023-12-26T01:30:00Z,42.805,6.029,13.3041,4.60160,2470.693,2023-12-26T03:32:30Z
2023-12-26T01:33:03Z,42.805,6.029,13.3057,4.60189,2470.717,2023-12-26T03:35:33Z
2023-12-26T01:36:06Z,42.805,6.029,13.3044,4.60162,2470.717,2023-12-26T03:38:36Z
2023-12-26T01:39:09Z,42.805,6.029,13.3043,4.60175,2470.74,2023-12-26T03:41:40Z
2023-12-26T01:42:12Z,42.805,6.029,13.3046,4.60173,2470.74,2023-12-26T03:44:43Z
2023-12-26T01:45:15Z,42.805,6.029,13.3047,4.60170,2470.754,2023-12-26T03:47:46Z
2023-12-26T01:48:18Z,42.805,6.029,13.3050,4.60185,2470.73,2023-12-26T03:50:49Z
2023-12-26T01:51:21Z,42.805,6.029,13.3046,4.60178,2470.73,2023-12-26T03:53:52Z
2023-12-26T01:54:24Z,42.805,6.029,13.3056,4.60165,2470.717,2023-12-26T03:56:55Z
2023-12-26T01:57:27Z,42.805,6.029,13.3041,4.60170,2470.754,2023-12-26T03:59:58Z
2023-12-26T02:00:30Z,42.805,6.029,13.3043,4.60170,2470.74,2023-12-26T04:03:01Z
2023-12-26T02:03:34Z,42.805,6.029,13.3046,4.60157,2470.73,2023-12-26T04:06:04Z
2023-12-26T02:06:37Z,42.805,6.029,13.3047,4.60161,2470.74,2023-12-26T04:09:07Z
2023-12-26T02:09:40Z,42.805,6.029,13.3066,4.60165,2470.717,2023-12-26T04:12:10Z
2023-12-26T02:12:43Z,42.805,6.029,13.3052,4.60154,2470.74,2023-12-26T04:15:13Z
2023-12-26T02:15:46Z,42.805,6.029,13.3042,4.60157,2470.74,2023-12-26T04:18:17Z
2023-12-26T02:18:49Z,42.805,6.029,13.3048,4.60152,2470.763,2023-12-26T04:21:20Z
2023-12-26T02:21:52Z,42.805,6.029,13.3048,4.60173,2470.74,2023-12-26T04:24:23Z
2023-12-26T02:24:55Z,42.805,6.029,13.3043,4.60165,2470.726,2023-12-26T04:27:26Z
2023-12-26T02:27:58Z,42.805,6.029,13.3052,4.60173,2470.754,2023-12-26T04:30:29Z
2023-12-26T02:31:01Z,42.805,6.029,13.3046,4.60158,2470.763,2023-12-26T04:33:32Z
2023-12-26T02:34:04Z,42.805,6.029,13.3049,4.60160,2470.74,2023-12-26T04:36:35Z
2023-12-26T02:37:07Z,42.805,6.029,13.3043,4.60156,2470.754,2023-12-26T04:39:38Z
2023-12-26T02:40:11Z,42.805,6.029,13.3045,4.60176,2470.763,2023-12-26T04:42:41Z
2023-12-26T02:43:14Z,42.805,6.029,13.3051,4.60155,2470.754,2023-12-26T04:45:44Z
2023-12-26T02:46:17Z,42.805,6.029,13.3046,4.60176,2470.74,2023-12-26T04:48:47Z
2023-12-26T02:49:20Z,42.805,6.029,13.3046,4.60150,2470.74,2023-12-26T04:51:50Z
2023-12-26T02:52:23Z,42.805,6.029,13.3057,4.60166,2470.8,2023-12-26T04:54:54Z
2023-12-26T02:55:26Z,42.805,6.029,13.3048,4.60157,2470.787,2023-12-26T04:57:57Z
2023-12-26T02:58:29Z,42.805,6.029,13.3043,4.60152,2470.777,2023-12-26T05:01:00Z
2023-12-26T03:01:32Z,42.805,6.029,13.3048,4.60150,2470.763,2023-12-26T05:04:03Z
2023-12-26T03:04:35Z,42.805,6.029,13.3043,4.60151,2470.8,2023-12-26T05:07:06Z
2023-12-26T03:07:38Z,42.805,6.029,13.3048,4.60156,2470.8,2023-12-26T05:10:09Z
2023-12-26T03:10:41Z,42.805,6.029,13.3044,4.60170,2470.787,2023-12-26T05:13:12Z
2023-12-26T03:13:44Z,42.805,6.029,13.3048,4.60158,2470.787,2023-12-26T05:16:15Z
2023-12-26T03:16:47Z,42.805,6.029,13.3048,4.60147,2470.8,2023-12-26T05:19:18Z
2023-12-26T03:19:51Z,42.805,6.029,13.3044,4.60158,2470.824,2023-12-26T05:22:21Z
2023-12-26T03:22:54Z,42.805,6.029,13.3049,4.60148,2470.824,2023-12-26T05:25:24Z
2023-12-26T03:25:57Z,42.805,6.029,13.3048,4.60144,2470.787,2023-12-26T05:28:27Z
2023-12-26T03:29:00Z,42.805,6.029,13.3051,4.60166,2470.824,2023-12-26T05:31:30Z
2023-12-26T03:32:03Z,42.805,6.029,13.3050,4.60160,2470.8,2023-12-26T05:34:34Z
2023-12-26T03:35:06Z,42.805,6.029,13.3046,4.60152,2470.787,2023-12-26T05:37:37Z
2023-12-26T03:38:09Z,42.805,6.029,13.3054,4.60164,2470.81,2023-12-26T05:40:40Z
2023-12-26T03:41:12Z,42.805,6.029,13.3050,4.60150,2470.824,2023-12-26T05:43:43Z
2023-12-26T03:44:15Z,42.805,6.029,13.3053,4.60156,2470.81,2023-12-26T05:46:46Z
2023-12-26T03:47:18Z,42.805,6.029,13.3043,4.60152,2470.81,2023-12-26T05:49:49Z
2023-12-26T03:50:21Z,42.805,6.029,13.3052,4.60162,2470.81,2023-12-26T05:52:52Z
2023-12-26T03:53:24Z,42.805,6.029,13.3044,4.60147,2470.824,2023-12-26T05:55:55Z
2023-12-26T03:56:28Z,42.805,6.029,13.3044,4.60147,2470.847,2023-12-26T05:58:58Z
2023-12-26T03:59:31Z,42.805,6.029,13.3049,4.60155,2470.857,2023-12-26T06:02:01Z
2023-12-26T04:02:34Z,42.805,6.029,13.3048,4.60175,2470.833,2023-12-26T06:05:04Z
2023-12-26T04:05:37Z,42.805,6.029,13.3050,4.60150,2470.857,2023-12-26T06:08:07Z
2023-12-26T04:08:40Z,42.805,6.029,13.3049,4.60152,2470.857,2023-12-26T06:11:11Z
2023-12-26T04:11:43Z,42.805,6.029,13.3043,4.60155,2470.857,2023-12-26T06:14:14Z
2023-12-26T04:14:46Z,42.805,6.029,13.3040,4.60147,2470.857,2023-12-26T06:17:17Z
2023-12-26T04:17:49Z,42.805,6.029,13.3047,4.60153,2470.88,2023-12-26T06:20:20Z
2023-12-26T04:20:52Z,42.805,6.029,13.3051,4.60167,2470.857,2023-12-26T06:23:23Z
2023-12-26T04:23:55Z,42.805,6.029,13.3045,4.60157,2470.857,2023-12-26T06:26:26Z
2023-12-26T04:26:58Z,42.805,6.029,13.3039,4.60150,2470.88,2023-12-26T06:29:29Z
2023-12-26T04:30:01Z,42.805,6.029,13.3053,4.60150,2470.88,2023-12-26T06:32:32Z
2023-12-26T04:33:04Z,42.805,6.029,13.3054,4.60161,2470.857,2023-12-26T06:35:35Z
2023-12-26T04:36:08Z,42.805,6.029,13.3049,4.60151,2470.88,2023-12-26T06:38:38Z
2023-12-26T04:39:11Z,42.805,6.029,13.3051,4.60143,2470.917,2023-12-26T06:41:41Z
2023-12-26T04:42:14Z,42.805,6.029,13.3054,4.60165,2470.88,2023-12-26T06:44:44Z
2023-12-26T04:45:17Z,42.805,6.029,13.3051,4.60166,2470.88,2023-12-26T06:47:47Z
2023-12-26T04:48:20Z,42.805,6.029,13.3054,4.60163,2470.857,2023-12-26T06:50:51Z
2023-12-26T04:51:23Z,42.805,6.029,13.3063,4.60177,2470.88,2023-12-26T06:53:54Z
2023-12-26T04:54:26Z,42.805,6.029,13.3044,4.60181,2470.904,2023-12-26T06:56:57Z
2023-12-26T04:57:29Z,42.805,6.029,13.3053,4.60178,2470.904,2023-12-26T07:00:00Z
2023-12-26T05:00:32Z,42.805,6.029,13.3048,4.60173,2470.904,2023-12-26T07:03:03Z
2023-12-26T05:03:35Z,42.805,6.029,13.3056,4.60178,2470.917,2023-12-26T07:06:06Z
2023-12-26T05:06:38Z,42.805,6.029,13.3055,4.60178,2470.88,2023-12-26T07:09:09Z
2023-12-26T05:09:41Z,42.805,6.029,13.3054,4.60167,2470.904,2023-12-26T07:12:12Z
2023-12-26T05:12:44Z,42.805,6.029,13.3054,4.60183,2470.904,2023-12-26T07:15:15Z
2023-12-26T05:15:48Z,42.805,6.029,13.3052,4.60186,2470.917,2023-12-26T07:18:18Z
2023-12-26T05:18:51Z,42.805,6.029,13.3056,4.60175,2470.927,2023-12-26T07:21:21Z
2023-12-26T05:21:54Z,42.805,6.029,13.3063,4.60176,2470.904,2023-12-26T07:24:24Z
2023-12-26T05:24:57Z,42.805,6.029,13.3059,4.60170,2470.904,2023-12-26T07:27:28Z
2023-12-26T05:28:00Z,42.805,6.029,13.3046,4.60181,2470.94,2023-12-26T07:30:31Z
2023-12-26T05:31:05Z,42.805,6.029,13.3055,4.60166,2470.88,2023-12-26T07:33:35Z
2023-12-26T05:34:08Z,42.805,6.029,13.3054,4.60170,2470.904,2023-12-26T07:36:38Z
2023-12-26T05:37:11Z,42.805,6.029,13.3049,4.60158,2470.904,2023-12-26T07:39:41Z
2023-12-26T05:40:14Z,42.805,6.029,13.3056,4.60170,2470.88,2023-12-26T07:42:45Z
2023-12-26T05:43:17Z,42.805,6.029,13.3053,4.60169,2470.927,2023-12-26T07:45:48Z
2023-12-26T05:46:20Z,42.805,6.029,13.3051,4.60166,2470.94,2023-12-26T07:48:51Z
2023-12-26T05:49:23Z,42.805,6.029,13.3057,4.60166,2470.927,2023-12-26T07:51:54Z
2023-12-26T05:52:26Z,42.805,6.029,13.3058,4.60154,2470.917,2023-12-26T07:54:57Z
2023-12-26T05:55:29Z,42.805,6.029,13.3054,4.60157,2470.95,2023-12-26T07:58:00Z
2023-12-26T05:58:32Z,42.805,6.029,13.3049,4.60162,2470.95,2023-12-26T08:01:03Z
2023-12-26T06:01:35Z,42.805,6.029,13.3050,4.60146,2470.917,2023-12-26T08:04:06Z
2023-12-26T06:04:38Z,42.805,6.029,13.3052,4.60159,2470.927,2023-12-26T08:07:09Z
2023-12-26T06:07:42Z,42.805,6.029,13.3054,4.60171,2470.95,2023-12-26T08:10:12Z
2023-12-26T06:10:45Z,42.805,6.029,13.3053,4.60171,2470.95,2023-12-26T08:13:15Z
2023-12-26T06:13:48Z,42.805,6.029,13.3058,4.60162,2470.927,2023-12-26T08:16:18Z
2023-12-26T06:16:51Z,42.805,6.029,13.3054,4.60169,2470.973,2023-12-26T08:19:22Z
2023-12-26T06:19:54Z,42.805,6.029,13.3065,4.60184,2470.94,2023-12-26T08:22:25Z
2023-12-26T06:22:57Z,42.805,6.029,13.3066,4.60157,2470.95,2023-12-26T08:25:28Z
2023-12-26T06:26:00Z,42.805,6.029,13.3056,4.60157,2470.94,2023-12-26T08:28:31Z
2023-12-26T06:29:03Z,42.805,6.029,13.3052,4.60179,2470.95,2023-12-26T08:31:34Z
2023-12-26T06:32:06Z,42.805,6.029,13.3055,4.60157,2470.964,2023-12-26T08:34:37Z
2023-12-26T06:35:09Z,42.805,6.029,13.3051,4.60153,2470.95,2023-12-26T08:37:40Z
2023-12-26T06:38:12Z,42.805,6.029,13.3051,4.60162,2470.927,2023-12-26T08:40:43Z
2023-12-26T06:41:16Z,42.805,6.029,13.3051,4.60140,2470.95,2023-12-26T08:43:46Z
2023-12-26T06:44:19Z,42.805,6.029,13.3055,4.60162,2470.987,2023-12-26T08:46:49Z
2023-12-26T06:47:22Z,42.805,6.029,13.3051,4.60157,2470.987,2023-12-26T08:49:52Z
2023-12-26T06:50:25Z,42.805,6.029,13.3048,4.60185,2470.95,2023-12-26T08:52:55Z
2023-12-26T06:53:28Z,42.805,6.029,13.3052,4.60175,2470.95,2023-12-26T08:55:59Z
2023-12-26T06:56:31Z,42.805,6.029,13.3061,4.60190,2470.95,2023-12-26T08:59:02Z
2023-12-26T06:59:34Z,42.805,6.029,13.3046,4.60169,2470.94,2023-12-26T09:02:05Z
2023-12-26T07:02:37Z,42.805,6.029,13.3049,4.60150,2470.973,2023-12-26T09:05:08Z
2023-12-26T07:05:40Z,42.805,6.029,13.3050,4.60149,2471.01,2023-12-26T09:08:11Z
2023-12-26T07:08:43Z,42.805,6.029,13.3052,4.60160,2470.987,2023-12-26T09:11:14Z
2023-12-26T07:11:46Z,42.805,6.029,13.3067,4.60175,2470.987,2023-12-26T09:14:17Z
2023-12-26T07:14:49Z,42.805,6.029,13.3048,4.60172,2470.95,2023-12-26T09:17:20Z
2023-12-26T07:17:53Z,42.805,6.029,13.3066,4.60145,2470.987,2023-12-26T09:20:23Z
2023-12-26T07:20:56Z,42.805,6.029,13.3048,4.60147,2471.01,2023-12-26T09:23:26Z
2023-12-26T07:23:59Z,42.805,6.029,13.3048,4.60149,2470.973,2023-12-26T09:26:29Z
2023-12-26T07:27:02Z,42.805,6.029,13.3048,4.60156,2470.997,2023-12-26T09:29:32Z
2023-12-26T07:30:05Z,42.805,6.029,13.3061,4.60170,2471.01,2023-12-26T09:32:36Z
2023-12-26T07:33:08Z,42.805,6.029,13.3060,4.60167,2470.987,2023-12-26T09:35:39Z
2023-12-26T07:36:11Z,42.805,6.029,13.3051,4.60145,2470.95,2023-12-26T09:38:42Z
2023-12-26T07:39:14Z,42.805,6.029,13.3051,4.60145,2470.927,2023-12-26T09:41:45Z
2023-12-26T07:42:17Z,42.805,6.029,13.3050,4.60152,2470.973,2023-12-26T09:44:48Z
2023-12-26T07:45:20Z,42.805,6.029,13.3061,4.60149,2470.973,2023-12-26T09:47:51Z
2023-12-26T07:48:23Z,42.805,6.029,13.3051,4.60158,2470.973,2023-12-26T09:50:54Z
2023-12-26T07:51:27Z,42.805,6.029,13.3044,4.60135,2470.95,2023-12-26T09:53:57Z
2023-12-26T07:54:30Z,42.805,6.029,13.3048,4.60152,2470.973,2023-12-26T09:57:00Z
2023-12-26T07:57:33Z,42.805,6.029,13.3054,4.60150,2470.973,2023-12-26T10:00:03Z
2023-12-26T08:00:36Z,42.805,6.029,13.3053,4.60157,2470.973,2023-12-26T10:03:06Z
2023-12-26T08:03:39Z,42.805,6.029,13.3047,4.60152,2470.997,2023-12-26T10:06:10Z
2023-12-26T08:06:42Z,42.805,6.029,13.3053,4.60155,2470.973,2023-12-26T10:09:13Z
2023-12-26T08:09:45Z,42.805,6.029,13.3049,4.60150,2470.973,2023-12-26T10:12:16Z
2023-12-26T08:12:48Z,42.805,6.029,13.3052,4.60164,2470.973,2023-12-26T10:15:19Z
2023-12-26T08:15:51Z,42.805,6.029,13.3051,4.60145,2470.95,2023-12-26T10:18:22Z
2023-12-26T08:18:54Z,42.805,6.029,13.3052,4.60145,2470.95,2023-12-26T10:21:25Z
2023-12-26T08:21:57Z,42.805,6.029,13.3048,4.60148,2470.95,2023-12-26T10:24:28Z
2023-12-26T08:25:00Z,42.805,6.029,13.3047,4.60150,2470.964,2023-12-26T10:27:31Z
2023-12-26T08:28:04Z,42.805,6.029,13.3050,4.60143,2470.95,2023-12-26T10:30:34Z
2023-12-26T08:31:07Z,42.805,6.029,13.3057,4.60149,2470.987,2023-12-26T10:33:37Z
2023-12-26T08:34:10Z,42.805,6.029,13.3060,4.60161,2470.973,2023-12-26T10:36:40Z
2023-12-26T08:37:13Z,42.805,6.029,13.3054,4.60165,2470.987,2023-12-26T10:39:44Z
2023-12-26T08:40:16Z,42.805,6.029,13.3058,4.60150,2470.927,2023-12-26T10:42:47Z
2023-12-26T08:43:19Z,42.805,6.029,13.3060,4.60161,2470.95,2023-12-26T10:45:50Z
2023-12-26T08:46:22Z,42.805,6.029,13.3049,4.60147,2470.964,2023-12-26T10:48:53Z
2023-12-26T08:49:25Z,42.805,6.029,13.3052,4.60152,2470.95,2023-12-26T10:51:56Z
2023-12-26T08:52:28Z,42.805,6.029,13.3061,4.60164,2470.95,2023-12-26T10:54:59Z
2023-12-26T08:55:31Z,42.805,6.029,13.3056,4.60157,2470.95,2023-12-26T10:58:02Z
2023-12-26T08:58:34Z,42.805,6.029,13.3045,4.60149,2470.95,2023-12-26T11:01:05Z
2023-12-26T09:01:38Z,42.805,6.029,13.3056,4.60142,2470.94,2023-12-26T11:04:08Z
2023-12-26T09:04:41Z,42.805,6.029,13.3052,4.60141,2470.95,2023-12-26T11:07:11Z
2023-12-26T09:07:44Z,42.805,6.029,13.3063,4.60164,2470.927,2023-12-26T11:10:14Z
2023-12-26T09:10:47Z,42.805,6.029,13.3049,4.60137,2470.964,2023-12-26T11:13:18Z
2023-12-26T09:13:50Z,42.805,6.029,13.3048,4.60139,2470.95,2023-12-26T11:16:21Z
2023-12-26T09:16:53Z,42.805,6.029,13.3047,4.60152,2470.927,2023-12-26T11:19:24Z
2023-12-26T09:19:56Z,42.805,6.029,13.3048,4.60135,2470.927,2023-12-26T11:22:27Z
2023-12-26T09:22:59Z,42.805,6.029,13.3046,4.60152,2470.95,2023-12-26T11:25:30Z
2023-12-26T09:26:02Z,42.805,6.029,13.3057,4.60150,2470.927,2023-12-26T11:28:33Z
2023-12-26T09:29:05Z,42.805,6.029,13.3061,4.60155,2470.95,2023-12-26T11:31:36Z
2023-12-26T09:32:08Z,42.805,6.029,13.3060,4.60146,2470.927,2023-12-26T11:34:39Z
2023-12-26T09:35:12Z,42.805,6.029,13.3041,4.60140,2470.927,2023-12-26T11:37:42Z
2023-12-26T09:38:15Z,42.805,6.029,13.3041,4.60132,2470.927,2023-12-26T11:40:45Z
2023-12-26T09:41:18Z,42.805,6.029,13.3043,4.60152,2470.927,2023-12-26T11:43:48Z
2023-12-26T09:44:21Z,42.805,6.029,13.3052,4.60157,2470.89,2023-12-26T11:46:52Z
2023-12-26T09:47:24Z,42.805,6.029,13.3045,4.60134,2470.964,2023-12-26T11:49:55Z
2023-12-26T09:50:27Z,42.805,6.029,13.3044,4.60140,2470.964,2023-12-26T11:52:58Z
2023-12-26T09:53:30Z,42.805,6.029,13.3046,4.60150,2470.95,2023-12-26T11:56:01Z
2023-12-26T09:56:33Z,42.805,6.029,13.3057,4.60152,2470.927,2023-12-26T11:59:04Z
2023-12-26T09:59:36Z,42.805,6.029,13.3041,4.60145,2470.94,2023-12-26T12:02:07Z
2023-12-26T10:02:39Z,42.805,6.029,13.3057,4.60164,2470.927,2023-12-26T12:05:10Z
2023-12-26T10:05:42Z,42.805,6.029,13.3056,4.60158,2470.95,2023-12-26T12:08:13Z
2023-12-26T10:08:46Z,42.805,6.029,13.3068,4.60152,2470.95,2023-12-26T12:11:16Z
2023-12-26T10:11:49Z,42.805,6.029,13.3043,4.60150,2470.94,2023-12-26T12:14:19Z
2023-12-26T10:14:52Z,42.805,6.029,13.3065,4.60155,2470.964,2023-12-26T12:17:22Z
2023-12-26T10:17:55Z,42.805,6.029,13.3064,4.60170,2470.89,2023-12-26T12:20:26Z
2023-12-26T10:20:58Z,42.805,6.029,13.3054,4.60166,2470.904,2023-12-26T12:23:29Z
2023-12-26T10:24:01Z,42.805,6.029,13.3051,4.60167,2470.917,2023-12-26T12:26:32Z
2023-12-26T10:27:04Z,42.805,6.029,13.3068,4.60167,2470.94,2023-12-26T12:29:35Z
2023-12-26T10:30:07Z,42.805,6.029,13.3046,4.60158,2470.871,2023-12-26T12:32:38Z
2023-12-26T10:33:10Z,42.805,6.029,13.3055,4.60157,2470.94,2023-12-26T12:35:41Z
2023-12-26T10:36:13Z,42.805,6.029,13.3067,4.60163,2470.904,2023-12-26T12:38:44Z
2023-12-26T10:39:16Z,42.805,6.029,13.3041,4.60151,2470.904,2023-12-26T12:41:47Z
2023-12-26T10:42:20Z,42.805,6.029,13.3043,4.60173,2470.88,2023-12-26T12:44:50Z
2023-12-26T10:45:23Z,42.805,6.029,13.3074,4.60152,2470.917,2023-12-26T12:47:53Z
2023-12-26T10:48:26Z,42.805,6.029,13.3064,4.60171,2470.88,2023-12-26T12:50:56Z
2023-12-26T10:51:29Z,42.805,6.029,13.3069,4.60190,2470.857,2023-12-26T12:53:59Z
2023-12-26T10:54:32Z,42.805,6.029,13.3071,4.60156,2470.894,2023-12-26T12:57:03Z
2023-12-26T10:57:35Z,42.805,6.029,13.3059,4.60157,2470.88,2023-12-26T13:00:06Z
2023-12-26T11:00:38Z,42.805,6.029,13.3043,4.60147,2470.917,2023-12-26T13:03:09Z
2023-12-26T11:03:41Z,42.805,6.029,13.3054,4.60154,2470.857,2023-12-26T13:06:12Z
2023-12-26T11:06:44Z,42.805,6.029,13.3049,4.60179,2470.917,2023-12-26T13:09:15Z
2023-12-26T11:09:47Z,42.805,6.029,13.3071,4.60190,2470.904,2023-12-26T13:12:18Z
2023-12-26T11:12:50Z,42.805,6.029,13.3067,4.60148,2470.904,2023-12-26T13:15:21Z
2023-12-26T11:15:53Z,42.805,6.029,13.3065,4.60186,2470.857,2023-12-26T13:18:24Z
2023-12-26T11:18:57Z,42.805,6.029,13.3089,4.60182,2470.88,2023-12-26T13:21:27Z
2023-12-26T11:22:00Z,42.805,6.029,13.3063,4.60172,2470.88,2023-12-26T13:24:30Z
2023-12-26T11:25:03Z,42.805,6.029,13.3064,4.60205,2470.894,2023-12-26T13:27:33Z
2023-12-26T11:28:06Z,42.805,6.029,13.3067,4.60182,2470.917,2023-12-26T13:30:37Z
2023-12-26T11:31:07Z,42.805,6.029,13.3078,4.60180,2470.871,2023-12-26T13:33:38Z
2023-12-26T11:34:10Z,42.805,6.029,13.3046,4.60183,2470.871,2023-12-26T13:36:41Z
2023-12-26T11:37:13Z,42.805,6.029,13.3063,4.60187,2470.857,2023-12-26T13:39:44Z
2023-12-26T11:40:16Z,42.805,6.029,13.3058,4.60197,2470.857,2023-12-26T13:42:47Z
2023-12-26T11:43:19Z,42.805,6.029,13.3065,4.60199,2470.857,2023-12-26T13:45:50Z
2023-12-26T11:46:23Z,42.805,6.029,13.3097,4.60199,2470.871,2023-12-26T13:48:53Z
2023-12-26T11:49:26Z,42.805,6.029,13.3068,4.60204,2470.88,2023-12-26T13:51:56Z
2023-12-26T11:52:29Z,42.805,6.029,13.3072,4.60196,2470.857,2023-12-26T13:54:59Z
2023-12-26T11:55:32Z,42.805,6.029,13.3057,4.60186,2470.857,2023-12-26T13:58:03Z
2023-12-26T11:58:35Z,42.805,6.029,13.3068,4.60167,2470.871,2023-12-26T14:01:06Z
2023-12-26T12:01:38Z,42.805,6.029,13.3052,4.60193,2470.871,2023-12-26T14:04:09Z
2023-12-26T12:04:41Z,42.805,6.029,13.3059,4.60178,2470.857,2023-12-26T14:07:12Z
2023-12-26T12:07:44Z,42.805,6.029,13.3078,4.60190,2470.871,2023-12-26T14:10:15Z
2023-12-26T12:10:47Z,42.805,6.029,13.3069,4.60187,2470.833,2023-12-26T14:13:18Z
2023-12-26T12:13:50Z,42.805,6.029,13.3061,4.60195,2470.833,2023-12-26T14:16:21Z
2023-12-26T12:16:53Z,42.805,6.029,13.3056,4.60192,2470.871,2023-12-26T14:19:24Z
2023-12-26T12:19:57Z,42.805,6.029,13.3060,4.60184,2470.857,2023-12-26T14:22:27Z
2023-12-26T12:23:00Z,42.805,6.029,13.3075,4.60185,2470.833,2023-12-26T14:25:30Z
2023-12-26T12:26:03Z,42.805,6.029,13.3061,4.60192,2470.833,2023-12-26T14:28:33Z
2023-12-26T12:29:06Z,42.805,6.029,13.3056,4.60185,2470.833,2023-12-26T14:31:37Z
2023-12-26T12:32:09Z,42.805,6.029,13.3069,4.60193,2470.857,2023-12-26T14:34:40Z
2023-12-26T12:35:12Z,42.805,6.029,13.3053,4.60168,2470.833,2023-12-26T14:37:43Z
2023-12-26T12:38:15Z,42.805,6.029,13.3070,4.60173,2470.81,2023-12-26T14:40:46Z
2023-12-26T12:41:18Z,42.805,6.029,13.3068,4.60179,2470.847,2023-12-26T14:43:49Z
2023-12-26T12:44:21Z,42.805,6.029,13.3062,4.60190,2470.833,2023-12-26T14:46:52Z
2023-12-26T12:47:24Z,42.805,6.029,13.3063,4.60191,2470.81,2023-12-26T14:49:55Z
2023-12-26T12:50:27Z,42.805,6.029,13.3061,4.60157,2470.8,2023-12-26T14:52:58Z
2023-12-26T12:53:30Z,42.805,6.029,13.3079,4.60171,2470.833,2023-12-26T14:56:01Z
2023-12-26T12:56:34Z,42.805,6.029,13.3059,4.60188,2470.81,2023-12-26T14:59:04Z
2023-12-26T12:59:37Z,42.805,6.029,13.3075,4.60178,2470.824,2023-12-26T15:02:07Z
2023-12-26T13:02:40Z,42.805,6.029,13.3067,4.60210,2470.81,2023-12-26T15:05:10Z
2023-12-26T13:05:43Z,42.805,6.029,13.3088,4.60197,2470.81,2023-12-26T15:08:14Z
2023-12-26T13:08:46Z,42.805,6.029,13.3062,4.60198,2470.81,2023-12-26T15:11:17Z
2023-12-26T13:11:49Z,42.805,6.029,13.3077,4.60195,2470.824,2023-12-26T15:14:20Z
2023-12-26T13:14:52Z,42.805,6.029,13.3051,4.60190,2470.773,2023-12-26T15:17:23Z
2023-12-26T13:17:55Z,42.805,6.029,13.3066,4.60186,2470.81,2023-12-26T15:20:26Z
2023-12-26T13:20:58Z,42.805,6.029,13.3061,4.60185,2470.824,2023-12-26T15:23:29Z
2023-12-26T13:24:01Z,42.805,6.029,13.3076,4.60152,2470.787,2023-12-26T15:26:32Z
2023-12-26T13:27:04Z,42.805,6.029,13.3045,4.60157,2470.847,2023-12-26T15:29:35Z
2023-12-26T13:30:10Z,42.805,6.029,13.3057,4.60178,2470.787,2023-12-26T15:32:41Z
2023-12-26T13:33:13Z,42.805,6.029,13.3076,4.60178,2470.824,2023-12-26T15:35:44Z
2023-12-26T13:36:16Z,42.805,6.029,13.3046,4.60170,2470.81,2023-12-26T15:38:47Z
2023-12-26T13:39:20Z,42.805,6.029,13.3061,4.60184,2470.824,2023-12-26T15:41:50Z
2023-12-26T13:42:23Z,42.805,6.029,13.3057,4.60201,2470.81,2023-12-26T15:44:53Z
2023-12-26T13:45:26Z,42.805,6.029,13.3069,4.60177,2470.824,2023-12-26T15:47:56Z
2023-12-26T13:48:29Z,42.805,6.029,13.3064,4.60181,2470.8,2023-12-26T15:51:00Z
2023-12-26T13:51:32Z,42.805,6.029,13.3085,4.60187,2470.847,2023-12-26T15:54:03Z
2023-12-26T13:54:35Z,42.805,6.029,13.3059,4.60194,2470.824,2023-12-26T15:57:06Z
2023-12-26T13:57:38Z,42.805,6.029,13.3070,4.60167,2470.824,2023-12-26T16:00:09Z
2023-12-26T14:00:41Z,42.805,6.029,13.3038,4.60153,2470.847,2023-12-26T16:03:12Z
2023-12-26T14:03:44Z,42.805,6.029,13.3052,4.60165,2470.824,2023-12-26T16:06:15Z
2023-12-26T14:06:47Z,42.805,6.029,13.3062,4.60175,2470.824,2023-12-26T16:09:18Z
2023-12-26T14:09:50Z,42.805,6.029,13.3066,4.60172,2470.763,2023-12-26T16:12:21Z
2023-12-26T14:12:54Z,42.805,6.029,13.3058,4.60183,2470.824,2023-12-26T16:15:24Z
2023-12-26T14:15:57Z,42.805,6.029,13.3054,4.60180,2470.824,2023-12-26T16:18:27Z
2023-12-26T14:19:00Z,42.805,6.029,13.3062,4.60167,2470.787,2023-12-26T16:21:30Z
2023-12-26T14:22:03Z,42.805,6.029,13.3063,4.60215,2470.833,2023-12-26T16:24:34Z
2023-12-26T14:25:06Z,42.805,6.029,13.3069,4.60193,2470.81,2023-12-26T16:27:37Z
2023-12-26T14:28:09Z,42.805,6.029,13.3066,4.60162,2470.787,2023-12-26T16:30:40Z
2023-12-26T14:31:12Z,42.805,6.029,13.3061,4.60190,2470.787,2023-12-26T16:33:43Z
2023-12-26T14:34:15Z,42.805,6.029,13.3070,4.60198,2470.75,2023-12-26T16:36:46Z
2023-12-26T14:37:18Z,42.805,6.029,13.3070,4.60185,2470.787,2023-12-26T16:39:49Z
2023-12-26T14:40:21Z,42.805,6.029,13.3068,4.60190,2470.8,2023-12-26T16:42:52Z
2023-12-26T14:43:24Z,42.805,6.029,13.3073,4.60215,2470.81,2023-12-26T16:45:55Z
2023-12-26T14:46:27Z,42.805,6.029,13.3073,4.60182,2470.824,2023-12-26T16:48:58Z
2023-12-26T14:49:31Z,42.805,6.029,13.3074,4.60238,2470.81,2023-12-26T16:52:01Z
2023-12-26T14:52:34Z,42.805,6.029,13.3077,4.60208,2470.824,2023-12-26T16:55:04Z
2023-12-26T14:55:37Z,42.805,6.029,13.3079,4.60199,2470.787,2023-12-26T16:58:07Z
2023-12-26T14:58:40Z,42.805,6.029,13.3086,4.60198,2470.847,2023-12-26T17:01:11Z
2023-12-26T15:01:43Z,42.805,6.029,13.3069,4.60158,2470.787,2023-12-26T17:04:14Z